Location: Aetna Mine
(38.6560°N, 122.4950°W)
Time: 18:18:52
(UTC+00:00)

Daily predictions for brighter satellites

Satellite Brightness Start Highest point End
(mag) Time Altitude Azimuth Time Altitude Azimuth Time Altitude Azimuth
ATLAS 2AS CENTAUR R/B 3.2 12:10:43 69° ENE 12:10:43 69° ENE 12:17:44 10° NE
USA 238 DEB 4.0 12:24:36 62° SSE 12:24:36 62° SSE 12:30:39 10° SSE
USA 238 4.0 12:24:39 63° SSE 12:24:39 63° SSE 12:30:46 10° SSE
Cosmos 2322 Rocket 3.7 12:21:03 21° SSE 12:23:46 32° ESE 12:28:45 10° NE
Cosmos 2263 Rocket 3.4 12:26:39 35° NE 12:27:37 37° ENE 12:32:50 10° SE
Lacrosse 5 3.0 12:37:32 40° ENE 12:37:32 40° ENE 12:40:49 10° NE
Meteor 1-21 Rocket 4.2 12:52:03 89° NNE 12:52:05 89° ENE 12:58:01 10° S
CZ-3A R/B 4.3 12:49:24 28° SSW 12:52:53 37° SSE 13:19:20 10° ESE
CZ-3 Stage 3 4.0 13:01:29 30° SSW 13:01:29 30° SSW 13:04:15 10° SSE
Cosmos 1295 Rocket 4.3 12:59:59 66° NW 13:00:47 76° W 13:06:51 10° S
Cosmos 158 Rocket 4.1 13:01:00 38° S 13:02:44 65° ESE 13:07:37 10° NNE
Cosmos 1953 Rocket 4.1 13:02:16 51° NE 13:02:53 57° E 13:07:09 10° SSE
STARLINK 1058 4.5 13:05:10 46° SE 13:05:10 46° SE 13:09:05 10° ENE
SL-16 R/B 2.1 13:05:16 50° SSW 13:06:50 89° WNW 13:12:32 10° NNE
Orbus 7S? 4.4 13:07:25 40° NNE 13:08:01 43° NE 13:14:15 10° ESE
Cosmos 2360 Rocket 3.6 13:03:05 10° S 13:08:16 38° ESE 13:13:27 10° NE
Gbstr 26 Del rocket 4.3 13:08:33 53° WNW 13:09:37 58° NNW 13:17:21 10° NE
STARLINK 1043 4.3 13:09:57 51° SE 13:10:05 51° SE 13:14:06 10° ENE
ATLAS 3B R/B 3.0 13:06:07 25° NNW 13:10:12 62° NE 13:17:05 10° SE
Cosmos 2344 4.4 13:11:13 30° NW 13:11:13 30° NW 13:18:06 10° NNE
Meteor 2-17 Rocket 4.3 13:12:00 59° W 13:12:17 60° W 13:18:12 10° S
Cosmos 1980 Rocket 4.1 13:18:05 15° NNW 13:18:05 15° NNW 13:19:23 10° N
STARLINK 1065 4.1 13:14:42 55° SSE 13:15:01 57° SE 13:19:05 10° ENE
NOSS 3-2 (C) 4.0 13:12:30 37° NW 13:15:59 70° WSW 13:24:27 10° SSE
RESURS DK-1 2.6 13:17:15 46° S 13:18:17 67° ESE 13:22:25 10° NNE
STARLINK 1063 3.9 13:19:28 57° S 13:19:57 63° SE 13:24:04 10° NE
Cosmos 2366 rocket 4.4 13:13:51 10° N 13:20:12 65° E 13:26:28 10° SSE
STARLINK 1064 3.8 13:24:15 56° SSW 13:24:57 70° SE 13:29:04 10° NE
Cosmos 962 Rocket 4.5 13:19:08 10° NNW 13:25:19 59° W 13:31:32 10° S
Cosmos 972 Rocket 4.4 13:26:12 46° WSW 13:26:12 46° WSW 13:30:52 10° S
USA 32 3.9 13:20:36 10° N 13:25:52 81° W 13:31:07 10° S
NOSS 3-4 (A) 3.7 13:25:53 41° NW 13:26:12 42° NW 13:32:08 10° NNE
NOSS 3-4 (C) 3.7 13:25:56 42° WNW 13:26:18 42° NW 13:32:15 10° NNE
USA 215 4.3 13:20:39 10° E 13:26:31 37° NNE 13:31:11 16° NNW
Meteor 1-16 Rocket 4.3 13:22:24 10° SSW 13:28:12 58° WNW 13:33:56 10° N
CENTAUR R/B 3.1 13:22:50 25° NW 13:28:18 74° WSW 13:37:01 10° SSE
STARLINK 1041 3.6 13:29:03 53° SSW 13:29:55 77° SE 13:34:04 10° NE
ALOS 2.1 13:27:59 10° NNE 13:32:40 87° WNW 13:37:20 10° SSW
Cosmos 1703 3.1 13:33:24 55° NNW 13:34:10 76° W 13:38:04 10° S
STARLINK 1038 3.5 13:33:49 49° SW 13:34:52 85° SE 13:39:02 10° NE
Cosmos 1680 Rocket 4.0 13:36:30 38° WNW 13:36:30 38° WNW 13:41:14 10° N
Meteor 2-10 4.3 13:33:54 10° SSW 13:39:06 43° WNW 13:44:10 10° N
STARLINK 1046 3.5 13:38:36 44° SW 13:39:51 87° NW 13:44:00 10° NE
Cosmos 2058 Rocket 2.9 13:35:46 10° SSW 13:40:07 63° W 13:44:27 10° N
Okean O Rocket 2.2 13:37:51 10° NNE 13:42:14 58° E 13:46:34 10° S
STARLINK 1039 3.5 13:43:23 39° WSW 13:44:49 79° NW 13:48:59 10° NE
COSMOS 2455 4.4 13:46:19 17° NNW 13:46:19 17° NNW 13:49:14 10° N
Cosmos 1371 Rocket 3.9 13:41:38 13° NNW 13:46:22 79° WSW 13:51:43 10° SSE
Abrixas rocket 3.8 13:48:35 20° SSW 13:48:35 20° SSW 13:50:13 10° SSE
METEOR-M 4.0 13:42:44 10° N 13:48:03 69° WNW 13:53:21 10° SSW
STARLINK 1045 3.5 13:48:10 35° WSW 13:49:48 72° NW 13:53:57 10° NE
COSMO-SKYMED 1 2.7 13:47:54 10° S 13:52:06 50° W 13:55:18 17° NNW
SL-8 Rocket 4.0 13:47:00 10° NNW 13:52:58 53° W 13:58:54 10° SSW
Alouette 2 Rocket 4.4 13:49:29 10° S 13:53:55 49° E 13:57:27 10° NNE
STARLINK 1050 3.6 13:53:11 32° WSW 13:54:56 63° NW 13:59:03 10° NE
NOAA 6 4.1 13:49:48 10° NNE 13:55:01 84° ESE 14:00:13 10° SSW
FALCON 9 DEB 3.7 13:53:46 29° NNW 13:55:16 55° NE 13:58:43 10° ESE
PAYLOAD B 4.2 13:49:51 10° N 13:55:29 79° WNW 14:01:04 10° SSW
Cosmos 1340 Rocket 4.2 13:52:23 10° SSE 13:56:01 39° E 13:59:40 10° NNE
Lacrosse 5 rocket 4.0 13:57:38 10° N 13:59:42 13° NNE 14:01:43 10° NE
STARLINK 1055 3.7 13:57:54 28° WSW 13:59:51 57° NW 14:03:57 10° NE
Cosmos 2181 Rocket 4.4 13:54:36 10° SW 14:00:21 39° WNW 14:06:14 10° N
ATLAS 2AS CENTAUR R/B 3.9 13:58:12 22° WNW 14:01:31 29° NW 14:08:15 10° NNE
STARLINK 1022 3.8 14:02:41 25° WSW 14:04:50 52° NW 14:08:54 10° NE
BREEZE-M DEB (TANK) 4.4 14:03:59 17° NW 14:06:52 31° NNE 14:17:28 10° ENE
Cosmos 1900 4.3 14:03:01 12° NNW 14:07:39 90° SSW 14:12:34 10° SSE
Cosmos 2322 Rocket 2.8 14:03:03 12° WSW 14:07:43 34° WNW 14:12:52 10° N
STARLINK 1042 3.9 14:07:26 22° WSW 14:09:48 48° NW 14:13:50 10° NE
Cosmos 2263 Rocket 3.0 14:08:25 19° WNW 14:11:21 29° WSW 14:16:08 10° SSW
Cosmos 2084 Rocket 4.4 14:07:29 10° SSW 14:11:41 51° ESE 14:15:57 10° NE
Cosmos 1624 Rocket 4.2 14:08:26 10° NNW 14:13:27 49° WSW 14:18:24 10° S
Meteor 1-11 4.5 14:09:10 10° NNW 14:14:32 47° W 14:19:55 10° SSW
STARLINK 1056 4.0 14:12:15 19° W 14:14:50 44° NW 14:18:49 10° NE
Cosmos 1300 2.6 14:11:51 10° SSW 14:15:36 64° W 14:19:25 10° N
USA 116 4.2 14:11:46 10° S 14:16:11 48° W 14:20:08 10° NNW
Cosmos 2058 4.0 14:14:09 10° N 14:18:15 48° E 14:22:19 10° SSE
Lacrosse 5 3.1 14:16:47 18° WNW 14:19:08 24° NNW 14:23:17 10° NNE
STARLINK 1054 4.1 14:16:59 17° W 14:19:48 41° NW 14:23:44 10° NE
Cosmos 1174 3.7 14:15:51 10° SSW 14:20:06 82° ESE 14:23:36 10° NNE
STARLINK-29 3.2 14:19:43 16° NW 14:22:26 84° NE 14:25:58 10° SE
Cosmos 1844 Rocket 3.0 14:16:57 10° NNW 14:22:36 69° ENE 14:28:13 10° SSE
STARLINK-60 3.8 14:22:33 19° WNW 14:24:33 38° SW 14:27:41 10° SSE
STARLINK 1062 4.2 14:21:44 15° W 14:24:46 38° NNW 14:28:39 10° NE
STARLINK-52 3.2 14:22:08 15° NW 14:24:59 78° NE 14:28:29 10° SE
H-2A R/B 2.8 14:21:15 10° NNE 14:25:10 86° E 14:29:00 10° SSW
ATLAS 2A CENTAUR R/B 3.8 14:22:05 10° SSW 14:25:22 24° SSE 14:33:19 10° ESE
Cosmos 1048 Rocket 4.4 14:20:45 10° S 14:25:59 70° ESE 14:31:12 10° NNE
Cosmos 1821 Rocket 4.0 14:20:56 10° N 14:27:06 86° E 14:33:11 10° S
Nadezhda 3 Rocket 3.9 14:21:35 10° SSW 14:27:42 75° W 14:33:55 10° N
SMAP 3.3 14:23:16 10° NNE 14:27:56 75° ESE 14:32:34 10° S
Cosmos 1455 4.5 14:24:50 10° SSE 14:28:13 29° E 14:31:36 10° NNE
Cosmos 2056 Rocket 4.1 14:24:32 10° NW 14:29:30 37° W 14:34:25 10° SSW
STARLINK 1053 4.3 14:26:35 13° W 14:29:51 35° NNW 14:33:40 10° NE
Cosmos 2333 Rocket 2.7 14:24:49 10° S 14:30:31 66° ESE 14:36:15 10° NNE
Cosmos-2242 4.3 14:27:02 10° SSE 14:31:12 46° E 14:35:25 10° NNE
Milstar 3 Cent rocket 4.4 14:18:52 10° WSW 14:33:25 47° S 14:40:32 10° ESE
Helios 1A Rocket 3.2 14:30:07 10° N 14:34:06 46° WNW 14:38:03 10° SW
STARLINK 1061 4.4 14:31:22 11° W 14:34:51 33° NNW 14:38:37 10° NNE
CZ-4 R/B 4.0 14:42:24 10° NE 14:46:00 27° E 14:49:33 10° SSE
Cosmos 1812 Rocket 3.9 14:41:55 10° SSW 14:46:03 41° WNW 14:50:15 10° N
Milstar 3 4.4 14:41:02 10° SW 14:48:57 33° S 14:54:55 10° ESE
SL-16 R/B 3.8 14:48:55 10° W 14:51:44 14° NW 14:54:36 10° NNW
Cosmos 2360 Rocket 3.0 14:47:24 10° WSW 14:52:18 29° WNW 14:57:13 10° N
Cosmos 2219 Rocket 2.2 14:49:20 10° SSW 14:55:01 81° WNW 15:00:43 10° NNE
ADEOS Rocket 3.0 14:49:52 10° S 14:55:10 51° W 15:00:45 10° NNW
Cosmos 1892 2.7 14:51:28 10° N 14:55:17 88° E 14:59:04 10° S
Feng Yun 1-1 Rocket 4.4 14:49:25 10° NNE 14:55:20 81° WNW 15:01:06 10° SSW
Cosmos 2333 4.4 14:50:46 10° SW 14:56:24 54° WNW 15:02:05 10° NNE
Cosmos 2322 4.0 14:52:13 10° SW 14:57:39 45° WNW 15:03:04 10° N
